カタログに戻る

KUIPER-00620

運用中通信LEO
NORAD 69295·PAYLOAD·🇺🇸 United States

打ち上げ May 29, 2026 から Vandenberg Space Force Base

Loading…

次のパス (今後24時間)

TLE

最新Source: CelesTrak SupGP

元期: Sep 14, 2026, 18:26 UTC

1 69295C 26118AE  26257.76850694  .00007515  00000+0  98403-3 0  2577
2 69295  51.9041 357.0500 0000388  91.1655 140.4293 14.79912196    12

AllMySatでKUIPER-00620をリアルタイム追跡

Download on the App Store